CW3518 Weather Reports


time (UTC)temp
F
wind
direction
speed
knots
gust
knots
rain 1hr
in
rain 24hr
in
rain mn
in
humidity
%
barometer
mb
20260508211026 76 166 7.8 11.3 0.00 0.42 0.42 66 1008.9
20260508210526 76 154 9.6 10.4 0.00 0.42 0.42 65 1009.0
20260508210026 76 213 6.1 11.3 0.00 0.42 0.42 66 1009.0
20260508205527 75 172 9.6 12.2 0.00 0.42 0.42 65 1009.1
20260508205026 76 195 7.8 12.2 0.00 0.42 0.42 67 1009.2
20260508204526 76 179 8.7 15.6 0.00 0.42 0.42 65 1009.4
20260508204026 75 217 11.3 16.5 0.00 0.42 0.42 67 1009.6
20260508203526 75 214 12.2 16.5 0.00 0.42 0.42 67 1009.5
20260508203026 75 219 13.9 15.6 0.00 0.42 0.42 67 1009.7
20260508202526 75 193 10.4 15.6 0.00 0.42 0.42 67 1009.9
20260508202026 75 197 12.2 13.9 0.00 0.42 0.42 67 1009.8
20260508201526 76 203 13.0 13.0 0.00 0.42 0.42 67 1010.0
20260508201027 76 0 0.0 12.2 0.00 0.42 0.42 67 1010.2
20260508200026 76 213 12.2 12.2 0.00 0.42 0.42 64 1010.4
20260508195527 76 160 7.0 9.6 0.00 0.42 0.42 65 1010.3
20260508195026 76 0 0.0 9.6 0.00 0.42 0.42 65 1010.4
20260508194527 75 155 7.8 8.7 0.00 0.42 0.42 66 1010.5
20260508194027 74 194 6.1 9.6 0.00 0.42 0.42 67 1010.7
20260508193526 74 172 7.8 9.6 0.00 0.42 0.42 67 1010.8
20260508193026 74 146 7.8 9.6 0.00 0.42 0.42 68 1010.9
20260508192527 75 202 6.1 12.2 0.00 0.42 0.42 69 1010.9
20260508192026 75 205 7.0 13.0 0.00 0.42 0.42 69 1010.9
20260508191527 75 217 9.6 13.0 0.00 0.42 0.42 67 1010.9
20260508191026 75 223 6.1 12.2 0.00 0.42 0.42 65 1010.9
20260508190526 75 228 7.8 9.6 0.00 0.42 0.42 65 1010.9
20260508190027 75 178 7.8 9.6 0.00 0.42 0.42 64 1010.9
20260508185526 75 180 8.7 11.3 0.00 0.42 0.42 66 1010.9
20260508185026 75 202 7.0 12.2 0.00 0.42 0.42 66 1011.1
20260508184526 75 156 8.7 12.2 0.00 0.42 0.42 65 1011.1
20260508184026 75 0 0.0 9.6 0.00 0.42 0.42 66 1011.2
20260508183527 75 139 3.5 9.6 0.00 0.42 0.42 65 1011.2
20260508183026 75 0 0.0 9.6 0.00 0.42 0.42 64 1011.1
20260508182526 74 133 7.8 10.4 0.00 0.42 0.42 67 1011.2
20260508182026 74 0 0.0 10.4 0.00 0.42 0.42 65 1011.3
20260508181526 74 0 0.0 11.3 0.00 0.42 0.42 65 1011.4
20260508180026 73 168 6.1 8.7 0.00 0.42 0.42 67 1011.8
20260508175526 73 212 7.8 8.7 0.00 0.42 0.42 67 1012.0
20260508175026 72 239 5.2 11.3 0.00 0.42 0.42 68 1012.0
20260508174526 72 161 4.3 11.3 0.00 0.42 0.42 68 1012.1
20260508174026 72 133 8.7 8.7 0.00 0.42 0.42 68 1012.3
20260508173527 72 220 7.8 8.7 0.00 0.42 0.42 69 1012.4
20260508173027 71 131 8.7 9.6 0.00 0.42 0.42 69 1012.4
20260508172526 72 199 4.3 9.6 0.00 0.42 0.42 70 1012.5
20260508172026 71 149 4.3 7.8 0.00 0.42 0.42 69 1012.5
20260508171526 71 131 5.2 7.0 0.00 0.42 0.42 74 1012.7
20260508171026 71 0 0.0 10.4 0.00 0.42 0.42 70 1012.6
20260508170527 69 209 5.2 10.4 0.00 0.42 0.42 72 1012.9
20260508170026 69 196 6.1 10.4 0.00 0.42 0.42 73 1012.7
20260508165526 69 0 0.0 8.7 0.00 0.42 0.42 71 1013.0
20260508165026 69 187 7.0 8.7 0.00 0.42 0.42 69 1013.1
20260508164526 69 157 5.2 9.6 0.00 0.42 0.42 70 1013.2
20260508164027 69 147 4.3 9.6 0.00 0.42 0.42 70 1013.2
20260508163527 69 0 0.0 9.6 0.00 0.42 0.42 68 1013.3
20260508163026 69 198 5.2 9.6 0.00 0.42 0.42 69 1013.3
20260508162526 69 162 6.1 9.6 0.00 0.42 0.42 67 1013.5
20260508162026 68 195 6.1 7.8 0.00 0.42 0.42 66 1013.5
20260508161026 68 0 0.0 8.7 0.00 0.42 0.42 67 1013.5
20260508160026 67 166 7.8 7.8 0.00 0.42 0.42 71 1013.6
20260508155526 66 0 0.0 7.8 0.00 0.42 0.42 71 1013.7
20260508155026 66 155 6.1 7.8 0.00 0.42 0.42 71 1013.8
20260508154527 66 141 7.0 7.8 0.00 0.42 0.42 71 1013.9
20260508154027 66 181 5.2 8.7 0.00 0.42 0.42 72 1014.0
20260508153026 67 163 7.0 8.7 0.00 0.42 0.42 68 1014.0
20260508152526 67 175 5.2 7.0 0.00 0.42 0.42 68 1014.2
20260508152026 66 193 3.5 7.8 0.00 0.42 0.42 73 1014.4
20260508151526 66 0 0.0 8.7 0.00 0.42 0.42 73 1014.4
20260508151026 66 124 3.5 9.6 0.00 0.42 0.42 77 1014.5
20260508150527 65 159 5.2 9.6 0.00 0.42 0.42 77 1014.5
20260508150026 65 146 6.1 7.8 0.00 0.42 0.42 76 1014.5
20260508145526 65 163 6.1 10.4 0.00 0.42 0.42 80 1014.5
20260508145026 65 0 0.0 10.4 0.00 0.42 0.42 79 1014.4
20260508144526 65 0 0.0 12.2 0.00 0.42 0.42 81 1014.5
20260508143526 64 0 0.0 10.4 0.00 0.42 0.42 80 1014.5
20260508143027 64 122 5.2 9.6 0.00 0.42 0.42 82 1014.5
20260508142526 64 0 0.0 8.7 0.00 0.42 0.42 80 1014.5
20260508141526 64 0 0.0 7.0 0.00 0.42 0.42 84 1014.6
20260508141026 63 0 0.0 7.8 0.00 0.42 0.42 86 1014.7
20260508140027 62 159 6.1 8.7 0.00 0.42 0.42 88 1014.7
20260508135527 62 150 7.0 8.7 0.00 0.42 0.42 87 1014.8
20260508135026 62 182 6.1 7.8 0.00 0.42 0.42 88 1014.9
20260508134026 62 0 0.0 8.7 0.00 0.42 0.42 89 1014.7
20260508133526 61 105 7.8 8.7 0.00 0.42 0.42 91 1014.8
20260508132526 61 98 6.1 8.7 0.00 0.42 0.42 92 1015.0
20260508131526 61 80 2.6 8.7 0.00 0.42 0.42 93 1015.0
20260508131026 60 104 7.0 8.7 0.00 0.42 0.42 92 1015.0
20260508130527 60 113 4.3 6.1 0.00 0.42 0.42 93 1014.9
20260508130027 60 128 4.3 5.2 0.00 0.42 0.42 93 1015.0
20260508125027 60 175 4.3 5.2 0.00 0.42 0.42 94 1014.9
20260508124527 60 161 3.5 7.8 0.05 0.42 0.42 94 1014.8
20260508124027 60 175 4.3 9.6 0.10 0.42 0.42 94 1014.6
20260508123026 60 138 7.8 9.6 0.21 0.42 0.42 95 1014.4
20260508122526 59 127 8.7 9.6 0.30 0.42 0.42 95 1014.4
20260508122027 59 133 7.8 8.7 0.35 0.42 0.42 95 1014.5
20260508120527 59 0 0.0 7.0 0.36 0.42 0.42 95 1014.5
20260508120027 59 0 0.0 10.4 0.36 0.42 0.42 96 1014.6
20260508115527 59 165 4.3 10.4 0.36 0.42 0.42 97 1014.5
20260508115026 59 144 7.0 9.6 0.36 0.42 0.42 97 1014.4
20260508114027 59 157 5.2 9.6 0.26 0.32 0.32 96 1014.7
20260508113527 59 225 7.0 10.4 0.15 0.21 0.21 95 1015.2
20260508113027 59 189 6.1 10.4 0.15 0.21 0.21 95 1014.7
20260508112527 59 194 10.4 10.4 0.06 0.12 0.12 93 1014.5
20260508112026 60 210 7.8 9.6 0.01 0.07 0.07 91 1014.5
20260508111527 60 168 7.0 9.6 0.00 0.06 0.06 89 1014.4
20260508111027 60 221 7.8 9.6 0.00 0.06 0.06 89 1014.9
20260508105026 60 187 3.5 7.8 0.00 0.06 0.06 89 1014.1
20260508104027 60 140 6.1 9.6 0.06 0.06 0.06 89 1013.7
20260508103527 60 127 3.5 6.1 0.06 0.06 0.06 91 1014.0
20260508103027 60 182 4.3 6.1 0.06 0.06 0.06 91 1014.2
20260508102527 60 194 3.5 6.1 0.06 0.06 0.06 90 1014.1
20260508102026 60 196 3.5 6.1 0.06 0.06 0.06 90 1014.1
20260508101527 60 167 3.5 7.0 0.06 0.06 0.06 90 1014.0
20260508101026 60 138 4.3 7.0 0.06 0.06 0.06 90 1013.9
20260508100527 60 126 4.3 6.1 0.06 0.06 0.06 90 1014.1
20260508100027 59 203 5.2 7.0 0.06 0.06 0.06 89 1014.4
20260508095527 60 183 4.3 7.0 0.06 0.06 0.06 89 1014.2
20260508094527 60 235 6.1 6.1 0.00 0.00 0.00 84 1014.6
20260508094027 60 187 1.7 2.6 0.00 0.00 0.00 84 1014.3
20260508093527 60 91 1.7 2.6 0.00 0.00 0.00 83 1014.1
20260508093027 60 144 1.7 4.3 0.00 0.00 0.00 83 1014.1
20260508092527 60 201 0.9 4.3 0.00 0.00 0.00 83 1014.2
20260508092026 60 138 4.3 4.3 0.00 0.00 0.00 83 1014.1
20260508091527 60 177 3.5 6.1 0.00 0.00 0.00 83 1014.1
20260508091027 60 208 4.3 6.1 0.00 0.00 0.00 83 1014.1
20260508090028 60 190 3.5 8.7 0.00 0.00 0.00 83 1013.9
20260508085027 60 152 4.3 7.8 0.00 0.00 0.00 83 1013.8
20260508084526 60 139 4.3 5.2 0.00 0.00 0.00 83 1013.9
20260508083027 61 169 4.3 6.1 0.00 0.00 0.00 80 1014.2
20260508082527 61 170 3.5 5.2 0.00 0.00 0.00 78 1014.3
20260508082027 61 135 3.5 5.2 0.00 0.00 0.00 77 1014.3
20260508081527 61 148 4.3 5.2 0.00 0.00 0.00 77 1014.4
20260508081026 61 157 4.3 4.3 0.00 0.00 0.00 78 1014.5
20260508080527 61 143 4.3 4.3 0.00 0.00 0.00 79 1014.4
20260508080027 60 161 3.5 5.2 0.00 0.00 0.00 79 1014.5
20260508075527 60 158 3.5 5.2 0.00 0.00 0.00 81 1014.7
20260508074527 60 228 4.3 5.2 0.00 0.00 0.00 79 1014.9
20260508073527 60 196 3.5 6.1 0.00 0.00 0.00 80 1014.9
20260508073027 60 182 3.5 6.1 0.00 0.00 0.00 79 1015.1
20260508072527 60 203 5.2 7.0 0.00 0.00 0.00 81 1015.4
20260508072027 59 205 4.3 7.8 0.00 0.00 0.00 83 1015.5
20260508071527 59 222 6.1 7.8 0.00 0.00 0.00 85 1015.7
20260508071026 59 230 7.8 7.8 0.00 0.00 0.00 84 1015.7
20260508070527 59 244 6.1 7.0 0.00 0.00 0.00 83 1015.6
20260508070026 59 232 2.6 3.5 0.00 0.00 0.00 82 1015.4
20260508065527 59 235 3.5 5.2 0.00 0.00 0.00 82 1015.5
20260508065027 59 197 1.7 6.1 0.00 0.00 0.00 82 1015.3
20260508064527 59 219 4.3 6.1 0.00 0.00 0.00 81 1015.7
20260508064027 60 220 5.2 5.2 0.00 0.00 0.00 81 1015.8
20260508063027 59 229 3.5 4.3 0.00 0.00 0.00 81 1015.8
20260508062527 60 230 4.3 4.3 0.00 0.00 0.00 80 1016.0
20260508062027 60 217 3.5 3.5 0.00 0.00 0.00 80 1015.9
20260508061527 60 199 1.7 5.2 0.00 0.00 0.00 80 1015.8
20260508061027 60 180 2.6 5.2 0.00 0.00 0.00 81 1015.9
20260508060527 60 146 4.3 5.2 0.00 0.00 0.00 81 1016.0
20260508060028 59 165 2.6 3.5 0.00 0.00 0.00 81 1016.1
20260508055027 59 166 0.9 1.7 0.00 0.00 0.00 81 1016.1
20260508054527 59 195 0.9 1.7 0.00 0.00 0.00 81 1016.1
20260508054027 59 122 1.7 2.6 0.00 0.00 0.00 81 1016.0
20260508053527 60 103 0.9 2.6 0.00 0.00 0.00 81 1016.0
20260508052527 61 136 2.6 2.6 0.00 0.00 0.00 77 1015.8
20260508052027 61 173 2.6 2.6 0.00 0.00 0.00 77 1015.8
20260508050527 61 236 3.5 3.5 0.00 0.00 0.00 77 1015.8
20260508045027 61 221 4.3 4.3 0.00 0.00 0.00 78 1016.0
20260508044527 61 220 4.3 4.3 0.00 0.00 0.00 78 1016.0
20260508044027 61 244 3.5 5.2 0.00 0.00 0.00 77 1016.1
20260508043027 61 233 4.3 5.2 0.00 0.00 0.00 75 1016.0
20260508042527 61 234 3.5 4.3 0.00 0.00 0.00 75 1015.8
20260508042027 61 217 3.5 4.3 0.00 0.00 0.00 75 1015.9
20260508041527 61 197 3.5 4.3 0.00 0.00 0.00 75 1015.8
20260508041027 61 216 3.5 4.3 0.00 0.00 0.00 75 1015.8
20260508040027 61 186 3.5 4.3 0.00 0.00 0.00 76 1016.0
20260508035527 61 202 2.6 4.3 0.00 0.00 0.00 75 1016.0
20260508035027 62 192 3.5 4.3 0.00 0.00 0.00 74 1015.8
20260508034527 62 203 4.3 4.3 0.00 0.00 0.00 74 1015.8
20260508034027 62 151 3.5 4.3 0.00 0.00 0.00 74 1015.7
20260508033027 62 168 3.5 4.3 0.00 0.00 0.00 73 1015.7
20260508032527 62 148 4.3 4.3 0.00 0.00 0.00 73 1015.6
20260508032027 63 162 3.5 5.2 0.00 0.00 0.00 72 1015.6
20260508031527 63 149 4.3 5.2 0.00 0.00 0.00 72 1015.7
20260508031027 63 134 5.2 5.2 0.00 0.00 0.00 72 1015.5
20260508030527 63 130 5.2 6.1 0.00 0.00 0.00 71 1015.6
20260508030027 63 138 4.3 6.1 0.00 0.00 0.00 70 1015.5
20260508025527 63 140 4.3 5.2 0.00 0.00 0.00 70 1015.3
20260508025028 63 142 2.6 5.2 0.00 0.00 0.00 70 1015.3
20260508024527 63 134 3.5 6.1 0.00 0.00 0.00 71 1015.3
20260508024027 63 0 0.0 6.1 0.00 0.00 0.00 71 1015.3
20260508023527 63 141 4.3 7.8 0.00 0.00 0.00 71 1015.1
20260508023027 63 128 6.1 8.7 0.00 0.00 0.00 71 1015.1
20260508022027 64 0 0.0 7.0 0.00 0.00 0.00 69 1015.1
20260508021527 64 0 0.0 9.6 0.00 0.00 0.00 69 1015.0
20260508021027 64 125 8.7 10.4 0.00 0.00 0.00 68 1015.0
20260508020527 65 114 9.6 10.4 0.00 0.00 0.00 67 1015.0
20260508020029 65 0 0.0 8.7 0.00 0.00 0.00 65 1015.0
20260508015527 66 104 7.8 8.7 0.00 0.00 0.00 63 1014.9
20260508015028 66 104 7.8 8.7 0.00 0.00 0.00 61 1014.8
20260508014527 67 0 0.0 5.2 0.00 0.00 0.00 58 1014.8
20260508014031 67 134 3.5 3.5 0.00 0.00 0.00 57 1014.8
20260508012027 67 125 3.5 4.3 0.00 0.00 0.00 57 1014.7
20260508011027 68 116 4.3 5.2 0.00 0.00 0.00 57 1014.7
20260508010527 68 110 3.5 5.2 0.00 0.00 0.00 57 1014.8
20260508010027 68 120 3.5 5.2 0.00 0.00 0.00 55 1014.7
20260508005527 68 119 3.5 5.2 0.00 0.00 0.00 55 1014.7
20260508005027 68 114 4.3 5.2 0.00 0.00 0.00 55 1014.6
20260508004527 68 110 4.3 6.1 0.00 0.00 0.00 55 1014.5
20260508003028 69 133 4.3 6.1 0.00 0.00 0.00 54 1014.8
20260508002527 69 119 4.3 6.1 0.00 0.00 0.00 53 1014.8
20260508001527 70 123 4.3 7.0 0.00 0.00 0.00 52 1014.9
20260508001028 70 185 6.1 7.8 0.00 0.00 0.00 50 1014.9
20260507235528 71 128 6.1 6.1 0.00 0.00 0.00 49 1014.9
20260507235027 71 145 5.2 6.1 0.00 0.00 0.00 48 1014.8
20260507234027 71 151 4.3 6.1 0.00 0.00 0.00 46 1014.9
20260507233528 71 157 3.5 7.8 0.00 0.00 0.00 47 1014.9
20260507233027 71 126 7.0 8.7 0.00 0.00 0.00 46 1015.0
20260507232027 72 142 8.7 9.6 0.00 0.00 0.00 46 1014.9
20260507231527 72 147 5.2 9.6 0.00 0.00 0.00 46 1014.9
20260507231027 72 209 5.2 9.6 0.00 0.00 0.00 45 1015.0
20260507230528 72 121 4.3 7.8 0.00 0.00 0.00 48 1015.1
20260507230027 71 101 4.3 10.4 0.00 0.00 0.00 48 1015.0
20260507225527 71 122 5.2 10.4 0.00 0.00 0.00 46 1015.0
20260507225027 72 134 5.2 8.7 0.00 0.00 0.00 45 1015.1
20260507224527 72 187 7.0 9.6 0.00 0.00 0.00 46 1015.2
20260507222027 71 130 7.0 11.3 0.00 0.00 0.00 47 1015.4
20260507221527 71 119 9.6 11.3 0.00 0.00 0.00 47 1015.4
20260507221027 71 114 5.2 12.2 0.00 0.00 0.00 49 1015.4
20260507220527 71 106 7.0 12.2 0.00 0.00 0.00 49 1015.3
20260507215028 71 103 9.6 13.9 0.00 0.00 0.00 47 1015.5
20260507214527 72 119 5.2 11.3 0.00 0.00 0.00 47 1015.5
20260507214028 72 87 7.0 11.3 0.00 0.00 0.00 48 1015.5
20260507213527 71 75 4.3 9.6 0.00 0.00 0.00 43 1015.6
20260507213027 72 40 5.2 9.6 0.00 0.00 0.00 43 1015.6
20260507212527 72 76 7.8 8.7 0.00 0.00 0.00 44 1015.6
20260507212027 73 80 7.8 8.7 0.00 0.00 0.00 43 1015.7